Regional Weather Roundup
Issued by NWS

Home | Current Version | Previous Version | Text Only | Print | Product List | Glossary On
Versions: 1 2 3 4 5 6 7 8 9 10 11 12 13 14 15 16 17 18 19 20 21 22 23 24 25 26 27 28 29 30 31 32 33 34 35 36 37 38 39 40 41 42 43 44 45 46 47 48 49 50
000
ASUS43 KDTX 110501
RWRMI
MICHIGAN HOURLY REGIONAL WEATHER ROUNDUP
NATIONAL WEATHER SERVICE DETROIT/PONTIAC MI
1200 AM EST SUN DEC 11 2016

NOTE: "FAIR" INDICATES FEW OR NO CLOUDS BELOW 12,000 FEET WITH NO
SIGNIFICANT WEATHER AND/OR OBSTRUCTION TO VISIBILITY.

MIZ047>049-052>055-059>063-066>070-074>076-081>083-110600-
SOUTHEAST LOWER MICHIGAN

CITY           SKY/WX    TMP DP  RH WIND       PRES   REMARKS
ADRIAN         CLOUDY    23  19  85 SW9       30.39S WCI  13
ALMA           CLOUDY    22  18  81 CALM      30.36S
ANN ARBOR      CLOUDY    23  17  78 S5        30.38R WCI  17
BAD AXE        CLOUDY    19  12  73 SW5       30.36S WCI  12
CARO           CLOUDY    19  16  89 CALM      30.36S
DETROIT CITY   CLOUDY    25  16  68 W7        30.40S WCI  17
DETROIT        CLOUDY    25  17  72 SW7       30.40S WCI  17
FLINT          CLOUDY    22  18  85 SW3       30.36S
GROSSE ILE     CLOUDY    25  17  69 SW6       30.39S WCI  18
HILLSDALE      LGT SNOW  21  19  93 S5        30.34S WCI  15
HOWELL         CLOUDY    22  17  81 CALM      30.35S

CITY           SKY/WX    TMP DP  RH WIND       PRES   REMARKS
JACKSON        LGT SNOW  22  16  78 S6        30.35S WCI  14
LAMBERTVILLE   CLOUDY    27  18  70 SW6       30.40S WCI  20
LANSING        LGT SNOW  22  16  78 SW13      30.36R WCI  10
LAPEER         NOT AVBL
MASON          LGT SNOW  22  18  84 SW5       30.36S WCI  16
MONROE         CLOUDY    26  18  73 SW5       30.39S WCI  20
MT. CLEMENS    CLOUDY    25  17  72 SW7       30.37S WCI  17
PONTIAC        CLOUDY    22  16  78 SW6       30.35S WCI  14
PORT HOPE        N/A     22  12  65 SW3       30.33F
PORT HURON     CLOUDY    23  19  86 CALM      30.38S
TRI CITIES     MOCLDY    21  15  78 S3        30.37S
MIDLAND        CLOUDY    21  12  70 CALM      30.36S
TROY           CLOUDY    25  15  64 SW6       30.40R WCI  18
SAGINAW HB     CLOUDY    23  18  80 CALM      30.36F
$$
MIZ043>046-050>051-056>058-064>065-071>073-077>080-110600-
SOUTHWEST LOWER MICHIGAN

CITY           SKY/WX    TMP DP  RH WIND       PRES   REMARKS
BATTLE CREEK   LGT SNOW  22  17  81 S6        30.35R WCI  14
BENTON HARBOR  LGT SNOW  23  19  85 SE8       30.34F VSB 1   WCI  14
BIG RAPIDS     LGT SNOW  19  15  85 S3        30.32R
COLDWATER      LGT SNOW  23  20  90 S3        30.36R
FREMONT        LGT SNOW  20  18  93 E3        30.32S
HOLLAND        LGT SNOW  22  19  89 S10       30.33S FOG     WCI  11
GRAND RAPIDS   LGT SNOW  22  17  81 S10       30.34S WCI  11
IONIA          LGT SNOW  22  18  85 S7        30.34S WCI  13
KALAMAZOO      LGT SNOW  23  18  81 S9        30.34F WCI  13
LUDINGTON      LGT SNOW  20  18  91 E5        30.32S VSB 1   WCI  13
MARSHALL       FLURRIES  23  17  80 S5        30.35S WCI  17
MOUNT PLEASANT CLOUDY    21  13  72 CALM      30.34S
MUSKEGON       LGT SNOW  23  21  92 SE8       30.33R VSB 3/4 WCI  14
SOUTH HAVEN    LGT SNOW  22  20  91 S5        30.34S WCI  16
$$
MIZ016>042-110600-
NORTHERN LOWER MICHIGAN

CITY           SKY/WX    TMP DP  RH WIND       PRES   REMARKS
ALPENA         MOCLDY    16   7  67 SW6       30.33R WCI   7
BELLAIRE       CLOUDY    19  14  79 S5        30.34R WCI  13
CADILLAC       MOCLDY    16  11  83 CALM      30.27S
CHARLEVOIX     FLURRIES  20  17  85 S9        30.33S WCI  10
FRANKFORT      CLOUDY    21  16  80 SE3       30.32R
GAYLORD        CLOUDY    13   8  81 SW8       30.27R WCI   2
GRAYLING       CLOUDY    14  11  86 CALM      30.31R
HARBOR SPRINGS CLOUDY    19  15  83 S3        30.30R
HOUGHTON LAKE  CLOUDY    16  11  80 S3        30.31S
MANISTEE       LGT SNOW  20  15  81 CALM      30.32R
OSCODA         CLOUDY    17  11  76 MISG      30.34F
PELLSTON       SNOW      19  16  88 S3        30.30S VSB 1/2
ROGERS CITY    PTCLDY    15   9  75 SW8       30.33R WCI   4
TRAVERSE CITY  CLOUDY    20  13  74 SE5       30.32R WCI  13
$$
MIZ007>008-015-110600-
EASTERN UPPER MICHIGAN

CITY           SKY/WX    TMP DP  RH WIND       PRES   REMARKS
KINROSS        CLOUDY    10   7  87 W9        30.28S WCI  -3
MACKINAC ISLAN FLURRIES  19  15  82 NW5       30.29R WCI  13
NEWBERRY       CLOUDY     9   5  84 SW7       30.26F WCI  -2
S. S. MARIE    CLOUDY    13  10  88 CALM      30.28S
MUNISING         N/A      6   0  76 S9        30.29S WCI  -8
$$
MIZ004>006-011>014-085-110600-
CENTRAL UPPER MICHIGAN

CITY           SKY/WX    TMP DP  RH WIND       PRES   REMARKS
MANISTIQUE     CLOUDY    10   4  80 NW6       30.29F WCI   0
ESCANABA       CLOUDY    11   7  84 CALM      30.31F
MENOMINEE        N/A     15   4  61 VRB3      30.32
SAWYER-GWINN   CLOUDY     1  -2  85 CALM      30.24S
$$
MIZ001>003-009>011-084-110600-
WESTERN UPPER MICHIGAN

CITY           SKY/WX    TMP DP  RH WIND       PRES   REMARKS
IRON MOUNTAIN  PTCLDY     9   1  70 CALM      30.24F
HOUGHTON       CLOUDY    10   2  69 VRB3      30.24S
COPPER HARBOR    N/A     14   9  80 SW7       30.27F WCI   4
IRONWOOD       CLOUDY    -2  -6  83 CALM      30.25S
$$

ABBREVIATIONS USED IN REMARKS
   TC - TEMPERATURE IN CELSIUS
  WCI - WIND CHILL INDEX
   HX - HEAT INDEX
  VSB - VISIBILITY





USA.gov is the U.S. government's official web portal to all federal, state and local government web resources and services.